Location: Newark
(21.1200°N, 73.4000°E)
Time: 06:17:13
(UTC+00:00)

Courier 1B Rocket - Pass Details

Date: 19 January 2020
Orbit: 920 x 1202 km, 28.2° (Epoch: 17 February)

Event Time Altitude Azimuth Distance (km) Brightness Sun altitude
Rises 09:38:07 0° 269° (W) 3,717 8.6 36.0°
Reaches altitude 10° 09:40:56 10° 274° (W) 2,727 8.0 35.6°
Maximum altitude 09:47:17 52° 349° (N) 1,159 5.6 34.6°
Drops below altitude 10° 09:53:23 10° 65° (ENE) 2,612 6.9 33.6°
Sets 09:56:02 0° 71° (ENE) 3,547 7.5 33.1°
